Flag Weather past 2 weeks in Santiago de Cuba, Cuba

Now
90 °F

Scattered clouds.


Feels Like: 93 °F
Forecast: 73 / 90 °F
Wind: 7 mph from Northwest

Location: Santiago De Cuba - Oriente

Current Time: Oct 30, 2014 at 3:11:05 PM

Latest Report: Oct 30, 2014 at 1:52 PM


Visibility: N/A

Pressure: 29.83 "Hg

Humidity: 49%

Dew point: 68 °F

Location of Santiago de CubaLocation

Historic Weather in Santiago de Cuba — Graph

°F

Santiago de Cuba temperature yesterday

Maximum temperature yesterday: 88 °F (at 11:51 AM)
Minimum temperature yesterday: 72 °F (at 9:50 PM)
Average temperature yesterday: 79 °F

Past Weeks' High & Low Weather Summary

 TemperatureHumidityPressure
High90 °F (Oct 20, 2:52 PM)100% (Oct 24, 1:54 PM)30.04 "Hg (Oct 24, 1:54 PM)
Low72 °F (Oct 21, 5:51 AM)49% (Oct 20, 2:52 PM)29.80 "Hg (Oct 25, 4:50 PM)
Average80 °F74%29.92 "Hg
* Reported Oct 15 1:51 PM — Oct 30 1:52 PM, Santiago de Cuba, Weather by CustomWeather, © 2014

Note: Actual official high and low records may vary slightly from our data, if they occured in-between our weather recording intervals... More about our weather records

Advertising

Santiago de Cuba weather history for previous 24 hours

 ConditionsComfort  
Time TempWeatherWind HumidityBarometerVisibility
1:52 PM
Oct 30
90 °FScattered clouds.7 mph49%29.83 "HgN/A
12:52 PM88 °FPassing clouds.6 mph52%29.86 "HgN/A
11:50 AM86 °FPassing clouds.10 mph59%29.89 "HgN/A
10:54 AM84 °FPassing clouds.9 mph62%29.92 "HgN/A
9:52 AM81 °FPassing clouds.10 mph74%29.92 "Hg6 mi
8:52 AM77 °FPassing clouds.9 mph79%29.92 "Hg6 mi
7:50 AM75 °FPassing clouds.9 mph83%29.89 "Hg6 mi
6:53 AM73 °FPassing clouds.8 mph83%29.89 "Hg6 mi
5:50 AM73 °FPassing clouds.9 mph83%29.86 "Hg6 mi
4:52 AM73 °FPassing clouds.9 mph89%29.86 "Hg6 mi
3:52 AM73 °FPassing clouds.7 mph89%29.86 "Hg6 mi
2:50 AM73 °FPassing clouds.9 mph89%29.86 "Hg6 mi
1:51 AM75 °FPassing clouds.10 mph83%29.89 "Hg6 mi
12:51 AM75 °FPassing clouds.10 mph83%29.89 "Hg6 mi
11:51 PM
Oct 29
73 °FPassing clouds.8 mph89%29.92 "Hg6 mi
10:53 PM73 °FPassing clouds.8 mph89%29.92 "Hg6 mi
9:50 PM72 °FPassing clouds.7 mph94%29.95 "Hg6 mi
8:50 PM73 °FThunderstorms. Partly cloudy.3 mph89%29.95 "Hg4 mi
7:51 PM75 °FThunderstorms. Mostly cloudy.12 mph89%N/A2 mi
6:52 PM79 °FScattered showers. Passing clouds.6 mph79%29.89 "Hg5 mi
5:50 PM84 °FScattered clouds.6 mph62%29.89 "HgN/A
4:50 PM84 °FScattered clouds.6 mph62%29.89 "HgN/A
3:51 PM86 °FScattered clouds.8 mph59%29.89 "HgN/A
Weather by CustomWeather, © 2014

See weather overviewHow to use our weather pages